Volver al catálogo

COSMOS 1275 DEB

ActivoPO
NORAD 42124·DEBRIS·🇷🇺 Russia

Lanzado Jun 4, 1981 desde Plesetsk Cosmodrome

Loading…

Próximos Pases (próximas 24 horas)

TLE

ActualizadoSource: Space-Track

Época: Sep 14, 2026, 01:15 UTC

1 42124U 81053QL  26257.05210962  .00000524  00000-0  56664-3 0  9998
2 42124  83.0048 266.5909 0123440  21.0629  36.3302 13.68149051638113

Sigue COSMOS 1275 DEB en tiempo real con AllMySat

Download on the App Store